Location: Waco, TX
(31.5480°N, 97.1670°W)
Time: 00:53:50
(UTC-06:00)

ISS - Pass Details

Date: 13 January 2018
Orbit: 402 x 407 km, 51.6° (Epoch: 21 January)

Event Time Altitude Azimuth Distance (km) Brightness Sun altitude
Rises 06:14:41 0° 333° (NNW) 2,324 - -15.6°
Exits shadow 06:17:03 - 354° (N) 1,594 -1.0 -15.2°
Reaches altitude 10° 06:17:37 10° 2° (N) 1,463 -1.2 -15.0°
Maximum altitude 06:19:18 13° 33° (NNE) 1,278 -1.1 -14.7°
Drops below altitude 10° 06:21:00 10° 64° (ENE) 1,461 -0.3 -14.4°
Sets 06:23:55 0° 93° (E) 2,319 1.7 -13.8°
